Location: Unspecified
(36.5600°N, 136.6600°E)
Time: 04:35:31
(UTC+09:00)

BlueWalker 3 - Pass Details

Date: 18 June 2024
Orbit: 480 x 491 km, 53.2° (Epoch: 24 July)

Event Time Altitude Azimuth Distance (km) Brightness Sun altitude
Rises 19:38:53 0° 191° (S) 2,529 5.3 -5.0°
Reaches altitude 10° 19:41:29 10° 172° (S) 1,651 4.2 -5.4°
Maximum altitude 19:44:09 19° 126° (SE) 1,208 3.2 -5.9°
Drops below altitude 10° 19:46:49 10° 81° (E) 1,654 4.1 -6.3°
Sets 19:49:26 0° 62° (ENE) 2,536 5.2 -6.7°
